Year,Month,Day,Hour,Minute,Value (Times are PST for temperature in C)
2009,04,05,00,00,6.20
2009,04,05,00,01,6.20
2009,04,05,00,02,6.20
2009,04,05,00,03,6.20
2009,04,05,00,04,6.20
2009,04,05,00,05,6.20
2009,04,05,00,06,6.20
2009,04,05,00,07,6.20
2009,04,05,00,08,6.20
2009,04,05,00,09,6.20
2009,04,05,00,10,6.20
2009,04,05,00,11,6.20
2009,04,05,00,12,6.20
2009,04,05,00,13,6.20
2009,04,05,01,02,4.90
2009,04,05,01,03,4.90
2009,04,05,01,04,4.80
2009,04,05,01,05,4.80
2009,04,05,01,06,4.70
2009,04,05,01,07,4.70
2009,04,05,01,08,4.70
2009,04,05,01,09,4.70
2009,04,05,01,10,4.70
2009,04,05,01,11,4.70
2009,04,05,01,12,4.60
2009,04,05,01,13,4.60
2009,04,05,01,14,4.60
2009,04,05,01,15,4.60
2009,04,05,01,16,4.60
2009,04,05,01,17,4.60
2009,04,05,01,18,4.60
2009,04,05,01,19,4.70
2009,04,05,01,20,4.70
2009,04,05,01,21,4.70
2009,04,05,01,22,4.70
2009,04,05,01,23,4.80
2009,04,05,01,24,4.80
2009,04,05,01,25,4.90
2009,04,05,01,26,5.00
2009,04,05,01,27,5.10
2009,04,05,01,28,5.10
2009,04,05,01,29,5.20
2009,04,05,01,30,5.20
2009,04,05,01,31,5.20
2009,04,05,01,32,5.30
2009,04,05,01,33,5.30
2009,04,05,01,34,5.30
2009,04,05,01,35,5.30
2009,04,05,01,36,5.40
2009,04,05,01,37,5.40
2009,04,05,01,38,5.50
2009,04,05,01,39,5.60
2009,04,05,01,40,5.70
2009,04,05,01,41,5.80
2009,04,05,01,42,5.90
2009,04,05,01,43,6.00
2009,04,05,01,44,6.10
2009,04,05,01,45,6.10
2009,04,05,01,46,6.20
2009,04,05,01,47,6.20
2009,04,05,01,48,6.20
2009,04,05,01,49,6.20
2009,04,05,01,50,6.20
2009,04,05,01,51,6.20
2009,04,05,01,52,6.20
2009,04,05,01,53,6.20
2009,04,05,01,54,6.20
2009,04,05,01,55,6.20
2009,04,05,01,56,6.10
2009,04,05,01,57,6.10
2009,04,05,01,58,6.10
2009,04,05,01,59,6.10
2009,04,05,02,00,6.10
2009,04,05,02,01,6.10
2009,04,05,02,02,6.00
2009,04,05,02,03,6.00
2009,04,05,02,04,5.90
2009,04,05,02,05,5.90
2009,04,05,02,06,5.90
2009,04,05,02,07,5.80
2009,04,05,02,08,5.80
2009,04,05,02,09,5.80
2009,04,05,02,10,5.70
2009,04,05,02,11,5.70
2009,04,05,02,12,5.70
2009,04,05,02,13,5.60
2009,04,05,02,14,5.60
2009,04,05,02,15,5.50
2009,04,05,02,16,5.50
2009,04,05,02,17,5.40
2009,04,05,02,18,5.40
2009,04,05,02,19,5.30
2009,04,05,02,20,5.30
2009,04,05,02,21,5.20
2009,04,05,02,22,5.20
2009,04,05,02,23,5.10
2009,04,05,02,24,5.10
2009,04,05,02,25,5.10
2009,04,05,02,26,5.00
2009,04,05,02,27,5.00
2009,04,05,02,28,4.90
2009,04,05,02,29,4.90
2009,04,05,02,30,4.90
2009,04,05,02,31,4.90
2009,04,05,02,32,4.90
2009,04,05,02,33,4.80
2009,04,05,02,34,4.80
2009,04,05,02,35,4.80
2009,04,05,02,36,4.70
2009,04,05,02,37,4.70
2009,04,05,02,38,4.70
2009,04,05,02,39,4.60
2009,04,05,02,40,4.60
2009,04,05,02,41,4.60
2009,04,05,02,42,4.60
2009,04,05,02,43,4.60
2009,04,05,02,44,4.60
2009,04,05,02,45,4.50
2009,04,05,02,46,4.50
2009,04,05,02,47,4.50
2009,04,05,02,48,4.50
2009,04,05,02,49,4.50
2009,04,05,02,50,4.60
2009,04,05,02,51,4.60
2009,04,05,02,52,4.60
2009,04,05,02,53,4.60
2009,04,05,02,54,4.60
2009,04,05,02,55,4.60
2009,04,05,02,56,4.60
2009,04,05,02,57,4.60
2009,04,05,02,58,4.60
2009,04,05,02,59,4.70
2009,04,05,03,00,4.70
2009,04,05,03,01,4.70
2009,04,05,03,02,4.70
2009,04,05,03,03,4.80
2009,04,05,03,04,4.80
2009,04,05,03,05,4.80
2009,04,05,03,06,4.90
2009,04,05,03,07,4.90
2009,04,05,03,08,4.90
2009,04,05,03,09,5.00
2009,04,05,03,10,5.00
2009,04,05,03,11,5.10
2009,04,05,03,12,5.10
2009,04,05,03,13,5.10
2009,04,05,03,14,5.10
2009,04,05,03,15,5.10
2009,04,05,03,16,5.10
2009,04,05,03,17,5.10
2009,04,05,03,18,5.10
2009,04,05,03,19,5.10
2009,04,05,03,20,5.10
2009,04,05,03,21,5.00
2009,04,05,03,22,5.00
2009,04,05,03,23,5.00
2009,04,05,03,24,5.00
2009,04,05,03,25,4.90
2009,04,05,03,26,4.90
2009,04,05,03,27,4.90
2009,04,05,03,28,4.90
2009,04,05,03,29,4.90
2009,04,05,03,30,4.90
2009,04,05,03,31,4.90
2009,04,05,03,32,4.80
2009,04,05,03,33,4.80
2009,04,05,03,34,4.80
2009,04,05,03,35,4.70
2009,04,05,03,36,4.70
2009,04,05,03,37,4.60
2009,04,05,03,38,4.50
2009,04,05,03,39,4.50
2009,04,05,03,40,4.40
2009,04,05,03,41,4.40
2009,04,05,03,42,4.30
2009,04,05,03,43,4.30
2009,04,05,03,44,4.20
2009,04,05,03,45,4.20
2009,04,05,03,46,4.10
2009,04,05,03,47,4.10
2009,04,05,03,48,4.00
2009,04,05,03,49,4.00
2009,04,05,03,50,3.90
2009,04,05,03,51,3.90
2009,04,05,03,52,3.80
2009,04,05,03,53,3.80
2009,04,05,03,54,3.80
2009,04,05,03,55,3.80
2009,04,05,03,56,3.70
2009,04,05,03,57,3.70
2009,04,05,03,58,3.70
2009,04,05,03,59,3.70
2009,04,05,04,00,3.60
2009,04,05,04,01,3.60
2009,04,05,04,02,3.60
2009,04,05,04,03,3.50
2009,04,05,04,04,3.50
2009,04,05,04,05,3.40
2009,04,05,04,06,3.40
2009,04,05,04,07,3.40
2009,04,05,04,08,3.40
2009,04,05,04,09,3.40
2009,04,05,04,10,3.40
2009,04,05,04,11,3.30
2009,04,05,04,12,3.30
2009,04,05,04,13,3.30
2009,04,05,04,14,3.30
2009,04,05,04,15,3.30
2009,04,05,04,16,3.30
2009,04,05,04,17,3.30
2009,04,05,04,18,3.30
2009,04,05,04,19,3.30
2009,04,05,04,20,3.40
2009,04,05,04,21,3.40
2009,04,05,04,22,3.40
2009,04,05,04,23,3.50
2009,04,05,04,24,3.50
2009,04,05,04,25,3.60
2009,04,05,04,26,3.70
2009,04,05,04,27,3.70
2009,04,05,04,28,3.80
2009,04,05,04,29,3.90
2009,04,05,04,30,4.00
2009,04,05,04,31,4.00
2009,04,05,04,32,4.10
2009,04,05,04,33,4.20
2009,04,05,04,34,4.30
2009,04,05,04,35,4.40
2009,04,05,04,36,4.40
2009,04,05,04,37,4.50
2009,04,05,04,38,4.60
2009,04,05,04,39,4.60
2009,04,05,04,40,4.70
2009,04,05,04,41,4.70
2009,04,05,04,42,4.70
2009,04,05,04,43,4.80
2009,04,05,04,44,4.80
2009,04,05,04,45,4.80
2009,04,05,04,46,4.90
2009,04,05,04,47,4.90
2009,04,05,04,48,4.90
2009,04,05,04,49,4.90
2009,04,05,04,50,4.90
2009,04,05,04,51,4.90
2009,04,05,04,52,4.90
2009,04,05,04,53,4.90
2009,04,05,04,54,5.00
2009,04,05,04,55,4.90
2009,04,05,04,56,4.90
2009,04,05,04,57,4.90
2009,04,05,04,58,4.90
2009,04,05,04,59,4.80
2009,04,05,05,00,4.80
2009,04,05,05,01,4.70
2009,04,05,05,02,4.70
2009,04,05,05,03,4.70
2009,04,05,05,04,4.70
2009,04,05,05,05,4.60
2009,04,05,05,06,4.60
2009,04,05,05,07,4.60
2009,04,05,05,08,4.50
2009,04,05,05,09,4.50
2009,04,05,05,10,4.40
2009,04,05,05,11,4.40
2009,04,05,05,12,4.40
2009,04,05,05,13,4.30
2009,04,05,05,14,4.30
2009,04,05,05,15,4.20
2009,04,05,05,16,4.20
2009,04,05,05,17,4.10
2009,04,05,05,18,4.10
2009,04,05,05,19,4.00
2009,04,05,05,20,3.90
2009,04,05,05,21,3.80
2009,04,05,05,22,3.80
2009,04,05,05,23,3.70
2009,04,05,05,24,3.70
2009,04,05,05,25,3.60
2009,04,05,05,26,3.50
2009,04,05,05,27,3.50
2009,04,05,05,28,3.50
2009,04,05,05,29,3.40
2009,04,05,05,30,3.40
2009,04,05,05,31,3.40
2009,04,05,05,32,3.40
2009,04,05,05,33,3.40
2009,04,05,05,34,3.40
2009,04,05,05,35,3.40
2009,04,05,05,36,3.40
2009,04,05,05,37,3.50
2009,04,05,05,38,3.50
2009,04,05,05,39,3.60
2009,04,05,05,40,3.60
2009,04,05,05,41,3.60
2009,04,05,05,42,3.70
2009,04,05,05,43,3.70
2009,04,05,05,44,3.80
2009,04,05,05,45,3.80
2009,04,05,05,46,3.90
2009,04,05,05,47,4.00
2009,04,05,05,48,4.00
2009,04,05,05,49,4.10
2009,04,05,05,50,4.10
2009,04,05,05,51,4.20
2009,04,05,05,52,4.20
2009,04,05,05,53,4.30
2009,04,05,05,54,4.30
2009,04,05,05,55,4.40
2009,04,05,05,56,4.40
2009,04,05,05,57,4.40
2009,04,05,05,58,4.50
2009,04,05,05,59,4.50
2009,04,05,06,00,4.50
2009,04,05,06,01,4.60
2009,04,05,06,02,4.60
2009,04,05,06,03,4.70
2009,04,05,06,04,4.70
2009,04,05,06,05,4.70
2009,04,05,06,06,4.80
2009,04,05,06,07,4.80
2009,04,05,06,08,4.80
2009,04,05,06,09,4.80
2009,04,05,06,10,4.80
2009,04,05,06,11,4.80
2009,04,05,06,12,4.80
2009,04,05,06,13,4.80
2009,04,05,06,14,4.80
2009,04,05,06,15,4.90
2009,04,05,06,16,4.90
2009,04,05,06,17,4.90
2009,04,05,06,18,4.90
2009,04,05,06,19,4.90
2009,04,05,06,20,5.00
2009,04,05,06,21,5.00
2009,04,05,06,22,5.00
2009,04,05,06,23,5.00
2009,04,05,06,24,5.10
2009,04,05,06,25,5.10
2009,04,05,06,26,5.00
2009,04,05,06,27,5.00
2009,04,05,06,28,5.00
2009,04,05,06,29,4.90
2009,04,05,06,30,4.90
2009,04,05,06,31,4.90
2009,04,05,06,32,4.90
2009,04,05,06,33,4.80
2009,04,05,06,34,4.80
2009,04,05,06,35,4.80
2009,04,05,06,36,4.80
2009,04,05,06,37,4.80
2009,04,05,06,38,4.80
2009,04,05,06,39,4.70
2009,04,05,06,40,4.70
2009,04,05,06,41,4.70
2009,04,05,06,42,4.70
2009,04,05,06,43,4.70
2009,04,05,06,44,4.70
2009,04,05,06,45,4.60
2009,04,05,06,46,4.60
2009,04,05,06,47,4.60
2009,04,05,06,48,4.60
2009,04,05,06,49,4.60
2009,04,05,06,50,4.60
2009,04,05,06,51,4.60
2009,04,05,06,52,4.70
2009,04,05,06,53,4.70
2009,04,05,06,54,4.70
2009,04,05,06,55,4.80
2009,04,05,06,56,4.80
2009,04,05,06,57,4.80
2009,04,05,06,58,4.90
2009,04,05,06,59,4.90
2009,04,05,07,00,4.90
2009,04,05,07,01,4.90
2009,04,05,07,02,4.90
2009,04,05,07,03,4.90
2009,04,05,07,04,4.90
2009,04,05,07,05,4.90
2009,04,05,07,06,4.80
2009,04,05,07,07,4.80
2009,04,05,07,08,4.80
2009,04,05,07,09,4.80
2009,04,05,07,10,4.80
2009,04,05,07,11,4.80
2009,04,05,07,12,4.80
2009,04,05,07,13,4.80
2009,04,05,07,14,4.80
2009,04,05,07,15,4.90
2009,04,05,07,16,4.90
2009,04,05,07,17,4.90
2009,04,05,07,18,4.90
2009,04,05,07,19,4.90
2009,04,05,07,20,5.00
2009,04,05,07,21,5.00
2009,04,05,07,22,5.00
2009,04,05,07,23,5.00
2009,04,05,07,24,5.00
2009,04,05,07,25,5.00
2009,04,05,07,26,5.00
2009,04,05,07,27,5.00
2009,04,05,07,28,5.00
2009,04,05,07,29,4.90
2009,04,05,07,30,4.90
2009,04,05,07,31,4.90
2009,04,05,07,32,4.90
2009,04,05,07,33,4.90
2009,04,05,07,34,5.00
2009,04,05,07,35,5.00
2009,04,05,07,36,5.10
2009,04,05,07,37,5.10
2009,04,05,07,38,5.20
2009,04,05,07,39,5.20
2009,04,05,07,40,5.20
2009,04,05,07,41,5.20
2009,04,05,07,42,5.10
2009,04,05,07,43,5.10
2009,04,05,07,44,5.10
2009,04,05,07,45,5.10
2009,04,05,07,46,5.10
2009,04,05,07,47,5.10
2009,04,05,07,48,5.10
2009,04,05,07,49,5.10
2009,04,05,07,50,5.20
2009,04,05,07,51,5.20
2009,04,05,07,52,5.20
2009,04,05,07,53,5.20
2009,04,05,07,54,5.20
2009,04,05,07,55,5.30
2009,04,05,07,56,5.30
2009,04,05,07,57,5.30
2009,04,05,07,58,5.30
2009,04,05,07,59,5.30
2009,04,05,08,00,5.30
2009,04,05,08,01,5.30
2009,04,05,08,02,5.30
2009,04,05,08,03,5.40
2009,04,05,08,04,5.40
2009,04,05,08,05,5.50
2009,04,05,08,06,5.50
2009,04,05,08,07,5.60
2009,04,05,08,08,5.60
2009,04,05,08,09,5.70
2009,04,05,08,10,5.70
2009,04,05,08,11,5.70
2009,04,05,08,12,5.80
2009,04,05,08,13,5.80
2009,04,05,08,14,5.80
2009,04,05,08,15,5.90
2009,04,05,08,16,5.90
2009,04,05,08,17,6.00
2009,04,05,08,18,6.00
2009,04,05,08,19,6.10
2009,04,05,08,20,6.10
2009,04,05,08,21,6.20
2009,04,05,08,22,6.20
2009,04,05,08,23,6.20
2009,04,05,08,24,6.30
2009,04,05,08,25,6.30
2009,04,05,08,26,6.30
2009,04,05,08,27,6.40
2009,04,05,08,28,6.40
2009,04,05,08,29,6.50
2009,04,05,08,30,6.50
2009,04,05,08,31,6.60
2009,04,05,08,32,6.70
2009,04,05,08,33,6.80
2009,04,05,08,34,6.80
2009,04,05,08,35,6.90
2009,04,05,08,36,7.00
2009,04,05,08,37,7.00
2009,04,05,08,38,7.10
2009,04,05,08,39,7.20
2009,04,05,08,40,7.20
2009,04,05,08,41,7.30
2009,04,05,08,42,7.30
2009,04,05,08,43,7.40
2009,04,05,08,44,7.50
2009,04,05,08,45,7.50
2009,04,05,08,46,7.60
2009,04,05,08,47,7.70
2009,04,05,08,48,7.70
2009,04,05,08,49,7.80
2009,04,05,08,50,7.80
2009,04,05,08,51,7.90
2009,04,05,08,52,7.90
2009,04,05,08,53,7.90
2009,04,05,08,54,8.00
2009,04,05,08,55,8.00
2009,04,05,08,56,8.00
2009,04,05,08,57,8.10
2009,04,05,08,58,8.10
2009,04,05,08,59,8.10
2009,04,05,09,00,8.20
2009,04,05,09,01,8.20
2009,04,05,09,02,8.20
2009,04,05,09,03,8.30
2009,04,05,09,04,8.30
2009,04,05,09,05,8.30
2009,04,05,09,06,8.40
2009,04,05,09,07,8.40
2009,04,05,09,08,8.50
2009,04,05,09,09,8.50
2009,04,05,09,10,8.50
2009,04,05,09,11,8.60
2009,04,05,09,12,8.60
2009,04,05,09,13,8.60
2009,04,05,09,14,8.60
2009,04,05,09,15,8.60
2009,04,05,09,16,8.70
2009,04,05,09,17,8.70
2009,04,05,09,18,8.70
2009,04,05,09,19,8.80
2009,04,05,09,20,8.80
2009,04,05,09,21,8.80
2009,04,05,09,22,8.80
2009,04,05,09,23,8.90
2009,04,05,09,24,8.90
2009,04,05,09,25,8.90
2009,04,05,09,26,8.90
2009,04,05,09,27,8.90
2009,04,05,09,28,8.90
2009,04,05,09,29,8.90
2009,04,05,09,30,8.90
2009,04,05,09,31,9.00
2009,04,05,09,32,9.00
2009,04,05,09,33,9.10
2009,04,05,09,34,9.10
2009,04,05,09,35,9.10
2009,04,05,09,36,9.20
2009,04,05,09,37,9.20
2009,04,05,09,38,9.30
2009,04,05,09,39,9.30
2009,04,05,09,40,9.40
2009,04,05,09,41,9.50
2009,04,05,09,42,9.50
2009,04,05,09,43,9.60
2009,04,05,09,44,9.60
2009,04,05,09,45,9.60
2009,04,05,09,46,9.60
2009,04,05,09,47,9.70
2009,04,05,09,48,9.70
2009,04,05,09,49,9.70
2009,04,05,09,50,9.80
2009,04,05,09,51,9.80
2009,04,05,09,52,9.80
2009,04,05,09,53,9.80
2009,04,05,09,54,9.80
2009,04,05,09,55,9.90
2009,04,05,09,56,9.90
2009,04,05,09,57,10.00
2009,04,05,09,58,10.00
2009,04,05,09,59,10.10
2009,04,05,10,00,10.20
2009,04,05,10,01,10.20
2009,04,05,10,02,10.30
2009,04,05,10,03,10.30
2009,04,05,10,04,10.30
2009,04,05,10,05,10.30
2009,04,05,10,06,10.30
2009,04,05,10,07,10.40
2009,04,05,10,08,10.40
2009,04,05,10,09,10.40
2009,04,05,10,10,10.30
2009,04,05,10,11,10.30
2009,04,05,10,12,10.40
2009,04,05,10,13,10.50
2009,04,05,10,14,10.50
2009,04,05,10,15,10.60
2009,04,05,10,16,10.70
2009,04,05,10,17,10.70
2009,04,05,10,18,10.80
2009,04,05,10,19,10.80
2009,04,05,10,20,10.80
2009,04,05,10,21,10.90
2009,04,05,10,22,10.90
2009,04,05,10,23,10.90
2009,04,05,10,24,10.90
2009,04,05,10,25,10.90
2009,04,05,10,26,10.90
2009,04,05,10,27,10.90
2009,04,05,10,28,11.00
2009,04,05,10,29,11.00
2009,04,05,10,30,11.10
2009,04,05,10,31,11.10
2009,04,05,10,32,11.20
2009,04,05,10,33,11.20
2009,04,05,10,34,11.20
2009,04,05,10,35,11.20
2009,04,05,10,36,11.20
2009,04,05,10,37,11.20
2009,04,05,10,38,11.30
2009,04,05,10,39,11.30
2009,04,05,10,40,11.30
2009,04,05,10,41,11.30
2009,04,05,10,42,11.40
2009,04,05,10,43,11.50
2009,04,05,10,44,11.50
2009,04,05,10,45,11.60
2009,04,05,10,46,11.70
2009,04,05,10,47,11.70
2009,04,05,10,48,11.80
2009,04,05,10,49,11.80
2009,04,05,10,50,11.80
2009,04,05,10,51,11.80
2009,04,05,10,52,11.80
2009,04,05,10,53,11.80
2009,04,05,10,54,11.70
2009,04,05,10,55,11.70
2009,04,05,10,56,11.70
2009,04,05,10,57,11.70
2009,04,05,10,58,11.80
2009,04,05,10,59,11.70
2009,04,05,11,00,11.70
2009,04,05,11,01,11.60
2009,04,05,11,02,11.60
2009,04,05,11,03,11.60
2009,04,05,11,04,11.60
2009,04,05,11,05,11.50
2009,04,05,11,06,11.50
2009,04,05,11,07,11.60
2009,04,05,11,08,11.60
2009,04,05,11,09,11.70
2009,04,05,11,10,11.70
2009,04,05,11,11,11.80
2009,04,05,11,12,11.80
2009,04,05,11,13,11.90
2009,04,05,11,14,12.00
2009,04,05,11,15,12.10
2009,04,05,11,16,12.20
2009,04,05,11,17,12.30
2009,04,05,11,18,12.50
2009,04,05,11,19,12.60
2009,04,05,11,20,12.70
2009,04,05,11,21,12.70
2009,04,05,11,22,12.70
2009,04,05,11,23,12.70
2009,04,05,11,24,12.70
2009,04,05,11,25,12.60
2009,04,05,11,26,12.50
2009,04,05,11,27,12.50
2009,04,05,11,28,12.50
2009,04,05,11,29,12.50
2009,04,05,11,30,12.50
2009,04,05,11,31,12.60
2009,04,05,11,32,12.70
2009,04,05,11,33,12.70
2009,04,05,11,34,12.80
2009,04,05,11,35,12.80
2009,04,05,11,36,12.80
2009,04,05,11,37,12.80
2009,04,05,11,38,12.80
2009,04,05,11,39,12.80
2009,04,05,11,40,12.90
2009,04,05,11,41,13.00
2009,04,05,11,42,13.00
2009,04,05,11,43,13.10
2009,04,05,11,44,13.10
2009,04,05,11,45,13.20
2009,04,05,11,46,13.20
2009,04,05,11,47,13.30
2009,04,05,11,48,13.30
2009,04,05,11,49,13.20
2009,04,05,11,50,13.20
2009,04,05,11,51,13.10
2009,04,05,11,52,13.00
2009,04,05,11,53,12.90
2009,04,05,11,54,12.90
2009,04,05,11,55,12.90
2009,04,05,11,56,13.00
2009,04,05,11,57,13.10
2009,04,05,11,58,13.20
2009,04,05,11,59,13.30
2009,04,05,12,00,13.40
2009,04,05,12,01,13.50
2009,04,05,12,02,13.60
2009,04,05,12,03,13.60
2009,04,05,12,04,13.60
2009,04,05,12,05,13.70
2009,04,05,12,06,13.80
2009,04,05,12,07,13.90
2009,04,05,12,08,14.00
2009,04,05,12,09,14.10
2009,04,05,12,10,14.10
2009,04,05,12,11,14.20
2009,04,05,12,12,14.10
2009,04,05,12,13,14.10
2009,04,05,12,14,14.00
2009,04,05,12,15,13.90
2009,04,05,12,16,13.90
2009,04,05,12,17,13.80
2009,04,05,12,18,13.90
2009,04,05,12,19,13.90
2009,04,05,12,20,14.00
2009,04,05,12,21,14.10
2009,04,05,12,22,14.20
2009,04,05,12,23,14.20
2009,04,05,12,24,14.20
2009,04,05,12,25,14.10
2009,04,05,12,26,14.00
2009,04,05,12,27,13.90
2009,04,05,12,28,13.90
2009,04,05,12,29,13.90
2009,04,05,12,30,13.90
2009,04,05,12,31,13.80
2009,04,05,12,32,13.70
2009,04,05,12,33,13.80
2009,04,05,12,34,13.80
2009,04,05,12,35,13.90
2009,04,05,12,36,14.00
2009,04,05,12,37,14.10
2009,04,05,12,38,14.20
2009,04,05,12,39,14.30
2009,04,05,12,40,14.20
2009,04,05,12,41,14.20
2009,04,05,12,42,14.10
2009,04,05,12,43,14.20
2009,04,05,12,44,14.20
2009,04,05,12,45,14.20
2009,04,05,12,46,14.30
2009,04,05,12,47,14.30
2009,04,05,12,48,14.20
2009,04,05,12,49,14.10
2009,04,05,12,50,14.10
2009,04,05,12,51,14.10
2009,04,05,12,52,14.10
2009,04,05,12,53,14.20
2009,04,05,12,54,14.20
2009,04,05,12,55,14.20
2009,04,05,12,56,14.20
2009,04,05,12,57,14.30
2009,04,05,12,58,14.40
2009,04,05,12,59,14.50
2009,04,05,13,00,14.50
2009,04,05,13,01,14.70
2009,04,05,13,02,14.80
2009,04,05,13,03,14.90
2009,04,05,13,04,14.80
2009,04,05,13,05,14.80
2009,04,05,13,06,14.60
2009,04,05,13,07,14.60
2009,04,05,13,08,14.60
2009,04,05,13,09,14.70
2009,04,05,13,10,14.70
2009,04,05,13,11,14.80
2009,04,05,13,12,14.70
2009,04,05,13,13,14.70
2009,04,05,13,14,14.70
2009,04,05,13,15,14.70
2009,04,05,13,16,14.70
2009,04,05,13,17,14.80
2009,04,05,13,18,14.80
2009,04,05,13,19,14.80
2009,04,05,13,20,14.80
2009,04,05,13,21,14.80
2009,04,05,13,22,14.90
2009,04,05,13,23,15.00
2009,04,05,13,24,15.00
2009,04,05,13,25,15.00
2009,04,05,13,26,15.00
2009,04,05,13,27,14.90
2009,04,05,13,28,15.00
2009,04,05,13,29,14.90
2009,04,05,13,30,14.80
2009,04,05,13,31,14.90
2009,04,05,13,32,14.80
2009,04,05,13,33,14.80
2009,04,05,13,34,14.80
2009,04,05,13,35,14.90
2009,04,05,13,36,14.80
2009,04,05,13,37,14.80
2009,04,05,13,38,14.80
2009,04,05,13,39,14.80
2009,04,05,13,40,14.80
2009,04,05,13,41,14.80
2009,04,05,13,42,14.80
2009,04,05,13,43,14.80
2009,04,05,13,44,14.90
2009,04,05,13,45,14.90
2009,04,05,13,46,14.90
2009,04,05,13,47,15.00
2009,04,05,13,48,15.00
2009,04,05,13,49,15.00
2009,04,05,13,50,15.00
2009,04,05,13,51,15.10
2009,04,05,13,52,15.20
2009,04,05,13,53,15.40
2009,04,05,13,54,15.50
2009,04,05,13,55,15.60
2009,04,05,13,56,15.70
2009,04,05,13,57,15.80
2009,04,05,13,58,16.00
2009,04,05,13,59,16.10
2009,04,05,14,00,16.10
2009,04,05,14,01,16.10
2009,04,05,14,02,16.20
2009,04,05,14,03,16.20
2009,04,05,14,04,16.30
2009,04,05,14,05,16.20
2009,04,05,14,06,16.20
2009,04,05,14,07,16.10
2009,04,05,14,08,16.10
2009,04,05,14,09,16.10
2009,04,05,14,10,16.00
2009,04,05,14,11,15.90
2009,04,05,14,12,15.80
2009,04,05,14,13,15.80
2009,04,05,14,14,15.80
2009,04,05,14,15,15.80
2009,04,05,14,16,15.80
2009,04,05,14,17,15.90
2009,04,05,14,18,16.00
2009,04,05,14,19,16.10
2009,04,05,14,20,16.10
2009,04,05,14,21,16.20
2009,04,05,14,22,16.30
2009,04,05,14,23,16.30
2009,04,05,14,24,16.30
2009,04,05,14,25,16.20
2009,04,05,14,26,16.30
2009,04,05,14,27,16.30
2009,04,05,14,28,16.20
2009,04,05,14,29,15.90
2009,04,05,14,30,15.80
2009,04,05,14,31,15.80
2009,04,05,14,32,15.80
2009,04,05,14,33,15.80
2009,04,05,14,34,15.70
2009,04,05,14,35,15.70
2009,04,05,14,36,15.70
2009,04,05,14,37,15.80
2009,04,05,14,38,15.90
2009,04,05,14,39,16.10
2009,04,05,14,40,16.20
2009,04,05,14,41,16.20
2009,04,05,14,42,16.30
2009,04,05,14,43,16.30
2009,04,05,14,44,16.40
2009,04,05,14,45,16.40
2009,04,05,14,46,16.30
2009,04,05,14,47,16.30
2009,04,05,14,48,16.30
2009,04,05,14,49,16.30
2009,04,05,14,50,16.20
2009,04,05,14,51,16.10
2009,04,05,14,52,16.00
2009,04,05,14,53,16.10
2009,04,05,14,54,16.10
2009,04,05,14,55,16.10
2009,04,05,14,56,16.10
2009,04,05,14,57,16.20
2009,04,05,14,58,16.10
2009,04,05,14,59,16.10
2009,04,05,15,00,16.00
2009,04,05,15,01,16.00
2009,04,05,15,02,15.90
2009,04,05,15,03,15.80
2009,04,05,15,04,15.80
2009,04,05,15,05,15.80
2009,04,05,15,06,15.80
2009,04,05,15,07,15.80
2009,04,05,15,08,15.80
2009,04,05,15,09,15.80
2009,04,05,15,10,15.80
2009,04,05,15,11,15.80
2009,04,05,15,12,15.80
2009,04,05,15,13,15.80
2009,04,05,15,14,15.90
2009,04,05,15,15,16.00
2009,04,05,15,16,16.10
2009,04,05,15,17,16.30
2009,04,05,15,18,16.40
2009,04,05,15,19,16.50
2009,04,05,15,20,16.40
2009,04,05,15,21,16.40
2009,04,05,15,22,16.40
2009,04,05,15,23,16.40
2009,04,05,15,24,16.40
2009,04,05,15,25,16.40
2009,04,05,15,26,16.40
2009,04,05,15,27,16.40
2009,04,05,15,28,16.50
2009,04,05,15,29,16.50
2009,04,05,15,30,16.50
2009,04,05,15,31,16.50
2009,04,05,15,32,16.50
2009,04,05,15,33,16.40
2009,04,05,15,34,16.40
2009,04,05,15,35,16.40
2009,04,05,15,36,16.40
2009,04,05,15,37,16.50
2009,04,05,15,38,16.60
2009,04,05,15,39,16.60
2009,04,05,15,40,16.60
2009,04,05,15,41,16.60
2009,04,05,15,42,16.60
2009,04,05,15,43,16.50
2009,04,05,15,44,16.40
2009,04,05,15,45,16.30
2009,04,05,15,46,16.30
2009,04,05,15,47,16.30
2009,04,05,15,48,16.30
2009,04,05,15,49,16.30
2009,04,05,15,50,16.30
2009,04,05,15,51,16.20
2009,04,05,15,52,16.10
2009,04,05,15,53,16.10
2009,04,05,15,54,16.10
2009,04,05,15,55,16.10
2009,04,05,15,56,16.10
2009,04,05,15,57,16.10
2009,04,05,15,58,16.20
2009,04,05,15,59,16.20
2009,04,05,16,00,16.30
2009,04,05,16,01,16.30
2009,04,05,16,02,16.30
2009,04,05,16,03,16.30
2009,04,05,16,04,16.30
2009,04,05,16,05,16.40
2009,04,05,16,06,16.40
2009,04,05,16,07,16.50
2009,04,05,16,08,16.50
2009,04,05,16,09,16.50
2009,04,05,16,10,16.60
2009,04,05,16,11,16.60
2009,04,05,16,12,16.60
2009,04,05,16,13,16.70
2009,04,05,16,14,16.70
2009,04,05,16,15,16.70
2009,04,05,16,16,16.80
2009,04,05,16,17,16.90
2009,04,05,16,18,16.90
2009,04,05,16,19,16.80
2009,04,05,16,20,16.70
2009,04,05,16,21,16.70
2009,04,05,16,22,16.60
2009,04,05,16,23,16.60
2009,04,05,16,24,16.70
2009,04,05,16,25,16.70
2009,04,05,16,26,16.70
2009,04,05,16,27,16.70
2009,04,05,16,28,16.70
2009,04,05,16,29,16.60
2009,04,05,16,30,16.60
2009,04,05,16,31,16.50
2009,04,05,16,32,16.50
2009,04,05,16,33,16.50
2009,04,05,16,34,16.50
2009,04,05,16,35,16.40
2009,04,05,16,36,16.50
2009,04,05,16,37,16.50
2009,04,05,16,38,16.60
2009,04,05,16,39,16.60
2009,04,05,16,40,16.60
2009,04,05,16,41,16.60
2009,04,05,16,42,16.60
2009,04,05,16,43,16.60
2009,04,05,16,44,16.60
2009,04,05,16,45,16.70
2009,04,05,16,46,16.70
2009,04,05,16,47,16.60
2009,04,05,16,48,16.60
2009,04,05,16,49,16.60
2009,04,05,16,50,16.50
2009,04,05,16,51,16.50
2009,04,05,16,52,16.40
2009,04,05,16,53,16.40
2009,04,05,16,54,16.40
2009,04,05,16,55,16.30
2009,04,05,16,56,16.30
2009,04,05,16,57,16.30
2009,04,05,16,58,16.30
2009,04,05,16,59,16.30
2009,04,05,17,00,16.30
2009,04,05,17,01,16.20
2009,04,05,17,02,16.20
2009,04,05,17,03,16.20
2009,04,05,17,04,16.20
2009,04,05,17,05,16.20
2009,04,05,17,06,16.20
2009,04,05,17,07,16.20
2009,04,05,17,08,16.20
2009,04,05,17,09,16.20
2009,04,05,17,10,16.20
2009,04,05,17,11,16.20
2009,04,05,17,12,16.20
2009,04,05,17,13,16.20
2009,04,05,17,14,16.20
2009,04,05,17,15,16.30
2009,04,05,17,16,16.30
2009,04,05,17,17,16.30
2009,04,05,17,18,16.20
2009,04,05,17,19,16.20
2009,04,05,17,20,16.20
2009,04,05,17,21,16.20
2009,04,05,17,22,16.20
2009,04,05,17,23,16.10
2009,04,05,17,24,16.10
2009,04,05,17,25,16.10
2009,04,05,17,26,16.10
2009,04,05,17,27,16.10
2009,04,05,17,28,16.10
2009,04,05,17,29,16.10
2009,04,05,17,30,16.10
2009,04,05,17,31,16.10
2009,04,05,17,32,16.10
2009,04,05,17,33,16.20
2009,04,05,17,34,16.20
2009,04,05,17,35,16.20
2009,04,05,17,36,16.20
2009,04,05,17,37,16.20
2009,04,05,17,38,16.20
2009,04,05,17,39,16.20
2009,04,05,17,40,16.20
2009,04,05,17,41,16.30
2009,04,05,17,42,16.30
2009,04,05,17,43,16.30
2009,04,05,17,44,16.30
2009,04,05,17,45,16.30
2009,04,05,17,46,16.20
2009,04,05,17,47,16.20
2009,04,05,17,48,16.20
2009,04,05,17,49,16.20
2009,04,05,17,50,16.20
2009,04,05,17,51,16.10
2009,04,05,17,52,16.10
2009,04,05,17,53,16.10
2009,04,05,17,54,16.10
2009,04,05,17,55,16.00
2009,04,05,17,56,16.00
2009,04,05,17,57,15.90
2009,04,05,17,58,15.90
2009,04,05,17,59,15.90
2009,04,05,18,00,15.90
2009,04,05,18,01,15.90
2009,04,05,18,02,15.80
2009,04,05,18,03,15.80
2009,04,05,18,04,15.80
2009,04,05,18,05,15.80
2009,04,05,18,06,15.70
2009,04,05,18,07,15.70
2009,04,05,18,08,15.60
2009,04,05,18,09,15.60
2009,04,05,18,10,15.60
2009,04,05,18,11,15.50
2009,04,05,18,12,15.50
2009,04,05,18,13,15.50
2009,04,05,18,14,15.40
2009,04,05,18,15,15.50
2009,04,05,18,16,15.50
2009,04,05,18,17,15.50
2009,04,05,18,18,15.50
2009,04,05,18,19,15.50
2009,04,05,18,20,15.50
2009,04,05,18,21,15.40
2009,04,05,18,22,15.40
2009,04,05,18,23,15.40
2009,04,05,18,24,15.30
2009,04,05,18,25,15.30
2009,04,05,18,26,15.20
2009,04,05,18,27,15.20
2009,04,05,18,28,15.20
2009,04,05,18,29,15.10
2009,04,05,18,30,15.10
2009,04,05,18,31,15.00